Location: C�risy-Gailly
(49.9069°N, 2.6397°E)
Time: 06:19:49
(UTC+00:00)

Daily predictions for brighter satellites

Satellite Brightness Start Highest point End
(mag) Time Altitude Azimuth Time Altitude Azimuth Time Altitude Azimuth
SL-08 RB Rocket 4.2 19:35:30 10° S 19:40:06 65° WSW 19:44:47 10° NNW
Cosmos 921 Rocket 3.3 19:36:04 10° NNW 19:40:10 48° ENE 19:44:13 10° SE
Cosmos 2123 Rocket 4.1 19:35:18 10° N 19:41:29 60° ENE 19:47:40 10° SSE
Cosmos 2239 Rocket 4.5 19:37:47 10° S 19:43:52 72° E 19:50:02 10° NNE
Meteor 1-27 Rocket 4.0 19:40:51 10° NNW 19:46:50 83° W 19:52:46 10° S
OPS 6432 4.4 19:45:44 10° SW 19:49:48 84° SE 19:52:59 10° NE
ERBS 4.4 19:49:22 10° WNW 19:52:08 23° N 19:54:52 10° NE
Okean 1 4.4 19:49:01 10° N 19:52:34 28° ENE 19:56:07 10° SE
Cosmos 1707 Rocket 3.8 19:48:34 10° NNW 19:52:54 72° W 19:57:12 10° S
Cosmos 1605 Rocket 4.4 19:47:20 10° SSE 19:52:55 40° E 19:58:31 10° NNE
CZ-2C R/B 2.6 19:48:37 10° NNE 19:53:50 80° ESE 19:59:05 10° SSW
ARGOS 4.5 19:49:10 10° SSW 19:54:14 41° W 19:59:19 10° NNW
Cosmos 192 4.4 19:50:36 10° NNW 19:55:32 83° WSW 20:00:28 10° SSE
NOSS 3-2 (A) 3.4 19:50:39 10° SSW 19:56:14 58° ESE 20:02:38 10° NE
Cosmos 2219 Rocket 4.3 19:53:26 10° N 19:56:48 16° NNE 20:00:09 10° ENE
USA 267 4.3 19:53:09 10° ENE 19:58:01 22° SE 20:02:50 10° S
SL-16 R/B 2.6 19:55:42 10° NNW 20:01:15 51° NE 20:06:27 12° SE
SL-4 R/B 2.0 19:58:25 10° W 20:02:28 77° NNW 20:06:13 10° ENE
BREEZE-M DEB (TANK) 2.1 20:00:59 10° WSW 20:03:29 75° SSE 20:09:13 10° E
Cosmos 2242 Rocket 4.2 20:01:05 10° N 20:05:17 40° ENE 20:09:08 12° SE
SL-27 R/B 3.9 20:04:28 13° SE 20:06:09 17° E 20:08:25 10° ENE
NOSS 3-2 (C) 3.7 20:01:36 10° S 20:07:00 45° ESE 20:13:08 10° NE
Cosmos 1470 Rocket 3.8 20:03:28 10° SSE 20:07:42 49° E 20:11:55 10° NNE
Sich 1 3.9 20:04:11 10° SSW 20:08:33 55° WNW 20:12:55 10° N
BREEZE-M DEB (TANK) 1.6 20:07:55 10° W 20:11:01 79° S 20:12:31 15° E
Cosmos 2082 Rocket 2.4 20:05:57 10° SSW 20:11:38 78° WNW 20:17:21 10° NNE
USA 186 4.2 20:12:19 10° WSW 20:13:08 11° W 20:13:56 10° WNW
Meteor 2-20 Rocket 4.5 20:08:01 10° N 20:14:14 88° E 20:20:23 10° S
Meteor 1-4 Rocket 3.6 20:13:36 10° NNW 20:16:55 43° W 20:20:12 10° SSW
Cosmos 2322 Rocket 2.5 20:12:59 10° NNW 20:18:37 56° NE 20:23:14 15° SE
ERS-1 Rocket 4.0 20:16:14 14° ESE 20:19:50 30° ENE 20:24:12 10° N
Cosmos 1862 Rocket 3.8 20:16:15 10° NNW 20:20:42 76° W 20:25:06 10° S
Cosmos 1850 Rocket 4.3 20:19:18 10° S 20:24:18 46° ESE 20:29:20 10° NE
Cosmos 841 Rocket 4.0 20:21:06 10° NNW 20:26:09 46° ENE 20:29:56 17° SE
Meteor 1-25 Rocket 4.2 20:20:44 10° S 20:26:16 70° E 20:31:55 10° NNE
Cosmos 676 Rocket 4.3 20:21:49 10° SSW 20:27:09 75° WNW 20:32:31 10° NNE
SPOT 1/Viking Rocket 3.9 20:23:32 15° SE 20:27:40 50° ENE 20:32:43 10° N
Cosmos 2360 Rocket 3.0 20:22:21 10° NNW 20:27:41 40° NE 20:31:48 16° ESE
USA 276 2.4 20:25:20 10° W 20:28:27 54° SSW 20:30:11 23° SE
Meteor 1-18 Rocket 4.2 20:23:24 10° N 20:28:59 70° ENE 20:33:52 13° SSE
USA 32 4.0 20:23:47 10° S 20:28:59 76° E 20:34:14 10° N
X-37B 2.0 20:26:28 10° WSW 20:29:08 25° SSW 20:30:22 20° SSE
Terra 3.2 20:27:56 15° ESE 20:30:44 24° ENE 20:34:33 10° N
ATLAS 3B R/B 3.4 20:26:55 10° SSE 20:32:18 28° ESE 20:37:45 10° ENE
IGS 5A 3.5 20:29:39 17° SSE 20:32:45 61° ENE 20:36:53 10° N
Cosmos 1238 Rocket 2.0 20:30:32 12° S 20:33:13 70° E 20:36:17 10° NNE
Cosmos 468 Rocket 4.1 20:29:54 10° NNW 20:35:14 79° WSW 20:39:43 14° SSE
USA 234 3.6 20:29:00 10° E 20:35:25 62° NNE 20:41:52 10° WNW
CZ-2C R/B 4.0 20:30:52 10° N 20:35:27 71° WNW 20:39:56 10° SSW
Cosmos 1980 Rocket 3.6 20:31:23 10° NW 20:36:25 34° WSW 20:41:24 10° SSW
Cosmos 44 3.3 20:32:06 10° NW 20:37:01 85° NE 20:40:36 20° SE
Cosmos 1934 Rocket 4.4 20:31:15 10° SSW 20:37:36 70° WNW 20:43:58 10° N
Lacrosse 5 2.5 20:33:26 10° WNW 20:38:19 48° SW 20:41:50 18° SSE
Resurs 01 Rocket 2.2 20:35:25 10° S 20:39:45 56° W 20:44:09 10° NNW
Iridium 4 Rocket 4.5 20:38:43 18° ESE 20:39:57 20° E 20:43:03 10° NNE
Cosmos 1602 3.7 20:37:49 10° S 20:41:44 72° E 20:45:40 10° NNE
CARTOSAT-1 4.2 20:40:31 22° SE 20:42:53 41° ENE 20:46:58 10° N
GP-B 3.2 20:39:29 10° N 20:43:57 81° W 20:48:23 10° S
Cosmos 1933 Rocket 3.5 20:43:48 10° S 20:48:13 88° E 20:52:42 10° N
Cosmos 1814 Rocket 4.2 20:48:43 10° NNW 20:53:54 62° ENE 20:56:56 25° SE
COSMOS 2428 4.2 20:49:07 10° NNW 20:53:56 27° NE 20:57:48 14° E
Cosmos 405 Rocket 2.9 20:50:53 10° SSW 20:54:34 70° WNW 20:58:22 10° N
Spot 2 Rocket 3.5 20:51:17 18° SSE 20:55:11 85° WSW 21:00:19 10° NNW
USA 238 DEB 3.9 20:50:09 10° SW 20:56:49 73° NW 21:03:49 10° NE
USA 238 3.9 20:50:15 10° SW 20:56:55 74° NW 21:03:55 10° NE
Cosmos 1515 3.6 20:53:38 10° N 20:57:29 85° W 20:59:37 25° S
Cosmos 2237 Rocket 4.4 20:54:24 10° N 20:57:49 16° NNE 21:01:13 10° ENE
Okean 1-7 2.9 20:55:00 10° N 20:59:20 89° E 21:01:51 24° S
Cosmos 1869 Rocket 3.8 20:57:44 26° SSE 20:59:55 49° E 21:04:14 10° NNE
CENTAUR R/B 2.5 20:53:56 10° SW 20:59:58 84° SE 21:07:12 10° NE
Cosmos 1741 Rocket 4.0 20:57:55 10° SSW 21:03:11 88° ESE 21:08:31 10° NNE
Cosmos 1437 Rocket 3.0 21:01:27 10° NNW 21:05:14 63° W 21:07:19 24° S
FALCON 9 DEB 4.0 21:03:34 10° W 21:06:59 49° N 21:09:36 16° ENE
OBJECT-B 3.8 21:05:55 10° WSW 21:07:25 13° W 21:08:57 10° WNW
Cosmos 1763 Rocket 4.3 21:04:19 10° NNW 21:09:26 49° WSW 21:13:14 17° S
Cosmos 1703 Rocket 3.8 21:05:19 10° NNW 21:09:38 65° W 21:12:20 22° S
H-2A R/B 3.8 21:06:08 10° N 21:10:14 66° WNW 21:14:21 10° SSW
Cosmos 1570 Rocket 4.1 21:06:37 10° NNW 21:11:59 81° WSW 21:14:57 27° SSE
Cosmos 2333 Rocket 3.1 21:06:48 10° NNW 21:12:12 38° NE 21:15:19 22° ESE
ATLAS 5 CENTAUR R/B 2.2 21:10:10 10° NW 21:12:38 54° NE 21:14:58 26° ESE
Cosmos 2084 Rocket 3.5 21:09:53 10° SW 21:14:05 77° NW 21:18:26 10° NE
SWARM C 4.4 21:14:32 10° N 21:17:53 89° WNW 21:18:41 49° S
SWARM A 4.2 21:14:37 10° N 21:17:59 81° W 21:18:54 45° S
Landsat 7 4.5 21:15:20 18° S 21:18:39 52° W 21:23:19 10° NNW
SPOT 5 2.5 21:17:39 36° SSE 21:19:24 79° ENE 21:23:53 10° NNW
Meteor 1-5 Rocket 4.3 21:18:35 24° S 21:22:15 65° E 21:28:05 10° NNE
Cosmos 2208 Rocket 4.0 21:18:13 10° NNW 21:23:29 78° WSW 21:25:58 32° SSE
ERBS 3.6 21:26:00 10° NW 21:29:05 34° NNE 21:30:13 26° ENE
Cosmos 1733 Rocket 3.8 21:29:41 33° E 21:29:58 34° E 21:33:58 10° NNE
Cosmos 1356 4.1 21:30:29 39° ENE 21:30:29 39° ENE 21:33:18 10° NNE
Meteor 1-11 Rocket 3.9 21:31:46 34° SSE 21:34:00 55° E 21:39:41 10° NNE
Tsikada Rocket 4.3 21:30:00 10° N 21:36:13 55° ENE 21:38:45 34° SE
Lacrosse 4 Rocket 1.9 21:37:37 42° E 21:37:37 42° E 21:41:09 10° NE
Cosmos 968 Rocket 4.4 21:37:25 28° E 21:37:25 28° E 21:41:38 10° NE
GENESIS II 4.2 21:36:38 10° NW 21:40:39 78° NE 21:41:16 60° ESE
SL-27 R/B 3.9 21:37:56 10° SW 21:41:00 34° WNW 21:44:05 10° N
Cosmos 2100 Rocket 4.0 21:36:57 20° SSW 21:41:22 83° W 21:47:33 10° N
Meteor 2-4 Rocket 4.1 21:36:10 10° NNW 21:41:39 57° W 21:44:40 26° SSW
USA 267 3.1 21:35:20 10° ENE 21:41:52 67° SE 21:48:22 10° SW
Cosmos 2219 Rocket 2.6 21:36:34 10° NNW 21:42:09 52° NE 21:44:23 33° ESE
Cosmos 540 Rocket 4.1 21:37:10 10° NNW 21:42:09 49° WSW 21:44:28 29° SSW
SL-4 R/B 1.8 21:38:24 10° WNW 21:42:15 72° N 21:42:58 53° ENE
SL-16 R/B 3.5 21:40:11 10° NW 21:45:09 32° WSW 21:48:20 19° SSW
Cosmos 2173 Rocket 3.9 21:41:11 22° SSW 21:45:20 83° W 21:51:29 10° N
Cosmos 1242 Rocket 2.6 21:47:18 10° N 21:50:53 63° ENE 21:50:53 63° ENE
SAR-Lupe-2 3.9 21:49:49 10° N 21:53:23 64° WNW 21:54:05 50° SW
Meteor 1-23 Rocket 4.3 21:49:32 10° N 21:55:23 71° ENE 21:57:14 44° SE
Cosmos 2322 3.6 21:49:54 10° NNW 21:55:37 85° ENE 21:57:25 46° SSE
NOSS 3-2 (C) 4.3 21:52:03 10° WSW 21:57:50 51° NW 22:04:32 10° NE
Cosmos 1725 Rocket 4.0 21:55:18 37° S 21:57:55 73° E 22:04:15 10° NNE
Cosmos 1459 Rocket 4.2 21:53:47 20° SSW 21:58:16 70° WNW 22:04:39 10° N
ERS-1 Rocket 3.8 21:56:14 27° SSW 21:58:29 43° W 22:03:18 10° NNW
Cosmos 1833 4.1 21:58:11 33° SSW 22:00:51 78° ESE 22:06:33 10° NNE
Cosmos 2346 Rocket 4.4 21:54:57 10° NNW 22:01:01 77° W 22:03:31 38° S
Meteor 1-13 Rocket 4.4 21:55:46 10° NNW 22:01:13 63° W 22:03:23 36° SSW
Cosmos 1500 4.5 22:00:28 25° WSW 22:02:01 36° WNW 22:05:32 10° N
SL-08 R/B 4.3 21:59:40 39° S 22:02:06 79° E 22:08:15 10° NNE
Cosmos 2322 Rocket 3.6 21:57:31 10° NW 22:02:22 29° WSW 22:05:03 20° SW
Cosmos 1536 2.6 22:03:04 82° SE 22:03:11 84° E 22:07:11 10° NNE
Cosmos 1378 Rocket 3.7 22:00:09 10° N 22:04:32 55° ENE 22:04:52 53° E
Cosmos 2221 Rocket 4.0 22:00:07 10° NNW 22:04:33 59° W 22:05:37 45° SSW
Cosmos 2016 Rocket 4.0 22:02:20 32° SSW 22:05:35 85° W 22:12:01 10° N
JB-3 4.2 22:02:51 10° NNE 22:06:56 84° ESE 22:07:09 78° SSE
Okean 3 4.4 22:03:27 10° NNW 22:07:33 43° W 22:08:38 35° SW
Terra 2.3 22:06:49 39° SSW 22:08:11 52° W 22:12:52 10° NNW
Cosmos 2333 4.2 22:04:42 10° NNW 22:10:31 77° WSW 22:12:06 49° S
Cosmos 2360 Rocket 2.9 22:06:25 10° NW 22:11:45 43° WSW 22:13:33 33° SSW
COSMOS 2487 3.0 22:12:29 55° N 22:12:29 55° N 22:15:16 10° NNE
Cosmos 1666 2.9 22:12:27 58° W 22:12:41 60° WNW 22:16:26 10° N
SL-16 R/B 4.3 22:09:27 10° N 22:13:35 20° NE 22:17:40 10° E
USA 234 3.3 22:16:21 43° SSE 22:18:28 65° SW 22:24:59 10° WNW
Iridium 4 Rocket 4.0 22:18:30 32° WSW 22:19:42 40° W 22:23:39 10° N
Cosmos 1378 3.4 22:18:00 10° N 22:21:16 64° NNE 22:21:16 64° NNE
MOS 1-B Rocket 3.8 22:16:27 10° NNE 22:22:02 65° ESE 22:23:10 53° SSE
ATLAS 3B R/B 2.7 22:15:47 10° SW 22:22:23 77° NW 22:29:06 10° NE
Cosmos 1975 Rocket 4.1 22:23:06 10° N 22:27:14 34° ENE 22:27:17 34° ENE
Cosmos 2297 Rocket 3.9 22:32:12 18° E 22:32:12 18° E 22:35:03 10° ENE
Cosmos 1743 3.2 22:35:20 55° NNE 22:35:20 55° NNE 22:38:31 10° NNE
Okean 2 4.0 22:30:51 10° N 22:34:30 49° NE 22:34:30 49° NE
Thor Agena Rocket 3.7 22:30:00 10° NNE 22:35:00 52° ESE 22:35:03 52° ESE
Cosmos 1975 4.1 22:36:14 31° ENE 22:36:14 31° ENE 22:38:57 10° NNE
Cosmos 1980 4.2 22:29:53 10° NNW 22:35:27 52° NE 22:36:58 41° E
Cosmos 2233 Rocket 3.9 22:34:08 48° S 22:36:04 89° E 22:42:26 10° N
COSMOS 2428 2.7 22:33:03 10° NNW 22:38:48 75° WSW 22:39:48 60° S
Cosmos 44 Rocket 3.4 22:37:52 10° NW 22:42:48 61° SW 22:42:56 61° SW
Cosmos 2237 Rocket 2.6 22:37:39 10° NNW 22:43:13 55° NE 22:44:34 44° E
Cosmos 1271 Rocket 3.3 22:41:21 10° NNW 22:44:31 54° NW 22:44:31 54° NW
Cosmos 2219 4.4 22:46:31 26° E 22:46:31 26° E 22:50:23 10° NE
Cosmos 1464 Rocket 4.4 22:46:12 43° ESE 22:47:02 45° E 22:52:52 10° NNE
Cosmos 783 Rocket 4.4 22:42:22 10° NNW 22:47:40 81° ENE 22:48:13 71° SE
NOSS 0 Rocket 3.9 22:44:10 10° NNW 22:50:27 86° ENE 22:51:50 58° SE
Cosmos 1674 Rocket 4.3 22:46:48 10° NNW 22:50:54 41° W 22:51:00 41° W
CENTAUR R/B 4.1 22:45:27 10° W 22:51:27 38° NNW 22:58:29 10° NE
Cosmos 2333 Rocket 2.7 22:51:06 10° NW 22:56:36 46° WSW 22:57:19 44° SW
Geosat 3.8 22:58:12 76° SSW 22:58:29 80° WSW 23:03:33 10° NNW
Cosmos 1503 Rocket 3.9 22:58:15 74° S 22:58:44 86° ESE 23:04:08 10° NNE
Meteor 2-11 Rocket 4.4 23:06:27 54° SSW 23:07:52 76° WNW 23:14:01 10° N
DNEPR-1 R/B 4.0 23:08:04 10° NW 23:14:07 75° NE 23:14:43 67° E
Sich 1 Rocket 4.2 23:15:13 46° ENE 23:15:13 46° ENE 23:18:44 10° NNE
Lacrosse 4 Rocket 3.2 23:13:52 19° W 23:15:59 29° NW 23:19:39 10° NNE
ALOS 2 2.8 23:17:00 69° NW 23:17:00 69° NW 23:20:58 10° NNW
Cosmos 773 Rocket 3.8 23:12:25 10° NNW 23:17:35 85° WSW 23:17:38 85° SW
Helios 1A 3.8 23:18:09 43° NE 23:18:09 43° NE 23:21:51 10° N
Cosmos 968 Rocket 4.2 23:17:24 37° WSW 23:18:52 47° WNW 23:23:51 10° NNE
Cosmos 2034 Rocket 4.2 23:19:27 53° SE 23:20:19 57° E 23:26:31 10° NNE
Cosmos 2227 Rocket 3.0 23:22:00 37° E 23:22:00 37° E 23:26:41 10° NE
Cosmos 1072 Rocket 4.3 23:20:38 66° S 23:21:32 84° E 23:27:42 10° N
SL-4 R/B 4.5 23:18:13 10° WNW 23:18:33 12° W 23:18:33 12° W
Cosmos 1707 3.8 23:18:50 10° N 23:21:46 43° NNE 23:21:46 43° NNE
Cosmos 1891 Rocket 4.5 23:21:56 62° S 23:23:07 84° E 23:29:32 10° N
USA 267 3.7 23:18:26 10° ENE 23:24:52 61° NNW 23:31:17 10° W
Cosmos 2219 Rocket 3.3 23:20:55 10° NW 23:25:52 31° WSW 23:26:05 31° WSW
EO 1 Del DPAF 4.3 23:25:18 10° N 23:28:11 43° NNW 23:28:11 43° NNW
Cosmos 1536 Rocket 4.4 23:25:55 10° N 23:29:39 42° ENE 23:29:39 42° ENE
Cosmos 1782 Rocket 4.0 23:35:17 57° NW 23:35:17 57° NW 23:39:08 10° N
Cosmos 1538 Rocket 3.8 23:30:20 10° NNW 23:35:32 88° ENE 23:35:35 88° E
Cosmos 1607 3.9 23:39:32 10° NW 23:46:02 87° NE 23:47:26 58° SE
Helios 1B rocket 4.2 23:51:44 10° NE 23:54:18 25° ENE 23:54:18 25° ENE
